{"data":{"norad_id":64141,"epoch":"2026-09-19T18:03:52.917120Z","epoch_age_seconds":204940,"freshness":"STALE","line1":"1 64141U 25111U   26262.75269580  .00011462  00000+0  42530-3 0  9996","line2":"2 64141  43.0029  61.8297 0000658 275.5177  84.5600 15.27588010 75149","mean_motion":15.2758801,"eccentricity":6.58e-5,"inclination_deg":43.0029,"raan_deg":61.8297,"arg_perigee_deg":275.5177,"mean_anomaly_deg":84.56,"bstar":0.0004253,"rev_number":7514,"period_min":94.266254420261,"perigee_km":482.57364685595,"apogee_km":483.4765757898,"semimajor_km":6861.1621113229,"source":"CELESTRAK","updated_at":"2026-09-21T09:00:35.236160Z"}}